Time,TemperatureF,DewpointF,PressureIn,WindDirection,WindDirectionDegrees,WindSpeedMPH,WindSpeedGustMPH,Humidity,HourlyPrecipIn,Conditions,Clouds,dailyrainin,SoftwareType,DateUTC
2013-07-19 00:00:00,76.7,68.2,29.99,South,187,0.0,2.0,75,0.00,,,0.00,Wunderground v.1.15,2013-07-19 05:00:00,
2013-07-19 00:05:00,76.5,68.4,29.99,South,187,0.0,2.0,76,0.00,,,0.00,Wunderground v.1.15,2013-07-19 05:05:00,
2013-07-19 00:10:00,76.1,68.0,29.99,South,186,1.0,1.0,76,0.00,,,0.00,Wunderground v.1.15,2013-07-19 05:10:00,
2013-07-19 00:15:00,76.0,68.3,29.99,South,186,1.0,1.0,77,0.00,,,0.00,Wunderground v.1.15,2013-07-19 05:15:00,
2013-07-19 00:20:00,75.8,68.1,29.99,South,186,0.0,0.0,77,0.00,,,0.00,Wunderground v.1.15,2013-07-19 05:20:00,
2013-07-19 00:25:00,75.8,68.4,29.98,South,186,0.0,1.0,78,0.00,,,0.00,Wunderground v.1.15,2013-07-19 05:25:00,
2013-07-19 00:30:00,75.4,68.1,29.98,South,186,1.0,1.0,78,0.00,,,0.00,Wunderground v.1.15,2013-07-19 05:30:00,
2013-07-19 00:35:00,75.3,68.3,29.98,South,186,1.0,1.0,79,0.00,,,0.00,Wunderground v.1.15,2013-07-19 05:35:00,
2013-07-19 00:40:00,75.3,68.3,29.98,South,186,0.0,0.0,79,0.00,,,0.00,Wunderground v.1.15,2013-07-19 05:40:00,
2013-07-19 00:45:00,75.1,68.1,29.98,South,186,0.0,0.0,79,0.00,,,0.00,Wunderground v.1.15,2013-07-19 05:45:00,
2013-07-19 00:50:00,74.9,67.9,29.98,South,186,0.0,0.0,79,0.00,,,0.00,Wunderground v.1.15,2013-07-19 05:50:00,
2013-07-19 00:55:00,74.9,68.3,29.98,South,186,0.0,0.0,80,0.00,,,0.00,Wunderground v.1.15,2013-07-19 05:55:00,
2013-07-19 01:00:00,74.6,68.0,29.98,SE,133,0.0,3.0,80,0.00,,,0.00,Wunderground v.1.15,2013-07-19 06:00:00,
2013-07-19 01:05:00,74.4,68.2,29.98,SE,133,1.0,3.0,81,0.00,,,0.00,Wunderground v.1.15,2013-07-19 06:05:00,
2013-07-19 01:10:00,74.4,68.2,29.98,SE,133,0.0,2.0,81,0.00,,,0.00,Wunderground v.1.15,2013-07-19 06:10:00,
2013-07-19 01:15:00,74.4,68.5,29.98,SE,133,0.0,2.0,82,0.00,,,0.00,Wunderground v.1.15,2013-07-19 06:15:00,
2013-07-19 01:20:00,74.2,68.3,29.97,SE,133,0.0,2.0,82,0.00,,,0.00,Wunderground v.1.15,2013-07-19 06:20:00,
2013-07-19 01:25:00,74.0,68.2,29.97,SE,133,0.0,2.0,82,0.00,,,0.00,Wunderground v.1.15,2013-07-19 06:25:00,
2013-07-19 01:30:00,74.0,68.2,29.97,SE,133,0.0,2.0,82,0.00,,,0.00,Wunderground v.1.15,2013-07-19 06:30:00,
2013-07-19 01:35:00,73.9,68.4,29.97,SE,133,0.0,2.0,83,0.00,,,0.00,Wunderground v.1.15,2013-07-19 06:35:00,
2013-07-19 01:40:00,73.7,68.9,29.97,SE,133,0.0,2.0,85,0.00,,,0.00,Wunderground v.1.15,2013-07-19 06:40:00,
2013-07-19 01:45:00,73.5,68.7,29.97,SE,133,0.0,2.0,85,0.00,,,0.00,Wunderground v.1.15,2013-07-19 06:45:00,
2013-07-19 01:50:00,73.3,68.5,29.97,SE,133,0.0,2.0,85,0.00,,,0.00,Wunderground v.1.15,2013-07-19 06:50:00,
2013-07-19 01:55:00,73.3,68.5,29.97,SE,133,0.0,2.0,85,0.00,,,0.00,Wunderground v.1.15,2013-07-19 06:55:00,
2013-07-19 02:00:00,73.2,68.8,29.97,SE,133,0.0,2.0,86,0.00,,,0.00,Wunderground v.1.15,2013-07-19 07:00:00,
2013-07-19 02:05:00,73.0,68.6,29.97,SE,133,0.0,2.0,86,0.00,,,0.00,Wunderground v.1.15,2013-07-19 07:05:00,
2013-07-19 02:10:00,72.8,68.4,29.97,SE,133,0.0,2.0,86,0.00,,,0.00,Wunderground v.1.15,2013-07-19 07:10:00,
2013-07-19 02:15:00,72.7,68.6,29.97,SE,133,0.0,2.0,87,0.00,,,0.00,Wunderground v.1.15,2013-07-19 07:15:00,
2013-07-19 02:20:00,72.5,68.4,29.97,SE,133,0.0,2.0,87,0.00,,,0.00,Wunderground v.1.15,2013-07-19 07:20:00,
2013-07-19 02:25:00,72.3,68.2,29.98,SE,133,0.0,2.0,87,0.00,,,0.00,Wunderground v.1.15,2013-07-19 07:25:00,
2013-07-19 02:30:00,72.3,68.5,29.97,SE,133,0.0,2.0,88,0.00,,,0.00,Wunderground v.1.15,2013-07-19 07:30:00,
2013-07-19 02:35:00,72.1,68.3,29.97,SE,133,0.0,2.0,88,0.00,,,0.00,Wunderground v.1.15,2013-07-19 07:35:00,
2013-07-19 02:40:00,72.0,68.2,29.97,SE,133,0.0,2.0,88,0.00,,,0.00,Wunderground v.1.15,2013-07-19 07:40:00,
2013-07-19 02:45:00,71.8,68.4,29.97,SE,133,0.0,2.0,89,0.00,,,0.00,Wunderground v.1.15,2013-07-19 07:45:00,
2013-07-19 02:50:00,71.8,68.4,29.97,SE,133,0.0,2.0,89,0.00,,,0.00,Wunderground v.1.15,2013-07-19 07:50:00,
2013-07-19 02:55:00,71.6,68.2,29.97,SE,133,0.0,2.0,89,0.00,,,0.00,Wunderground v.1.15,2013-07-19 07:55:00,
2013-07-19 03:05:00,71.5,68.1,29.97,SE,133,0.0,2.0,89,0.00,,,0.00,Wunderground v.1.15,2013-07-19 08:05:00,
2013-07-19 03:10:00,71.5,68.4,29.97,SE,133,0.0,2.0,90,0.00,,,0.00,Wunderground v.1.15,2013-07-19 08:10:00,
2013-07-19 03:15:00,71.3,68.2,29.97,SE,133,0.0,2.0,90,0.00,,,0.00,Wunderground v.1.15,2013-07-19 08:15:00,
2013-07-19 03:20:00,71.5,68.4,29.97,SE,133,0.0,2.0,90,0.00,,,0.00,Wunderground v.1.15,2013-07-19 08:20:00,
2013-07-19 03:25:00,71.5,68.4,29.97,SE,133,0.0,2.0,90,0.00,,,0.00,Wunderground v.1.15,2013-07-19 08:25:00,
2013-07-19 03:30:00,71.6,68.5,29.97,SE,133,0.0,2.0,90,0.00,,,0.00,Wunderground v.1.15,2013-07-19 08:30:00,
2013-07-19 03:35:00,71.8,68.7,29.97,SE,133,0.0,2.0,90,0.00,,,0.00,Wunderground v.1.15,2013-07-19 08:35:00,
2013-07-19 03:40:00,71.8,68.7,29.97,SE,133,1.0,2.0,90,0.00,,,0.00,Wunderground v.1.15,2013-07-19 08:40:00,
2013-07-19 03:45:00,72.0,68.9,29.97,SE,133,1.0,2.0,90,0.00,,,0.00,Wunderground v.1.15,2013-07-19 08:45:00,
2013-07-19 03:50:00,72.0,68.9,29.97,East,97,1.0,2.0,90,0.00,,,0.00,Wunderground v.1.15,2013-07-19 08:50:00,
2013-07-19 04:05:00,72.0,68.6,29.97,NE,50,1.0,2.0,89,0.00,,,0.00,Wunderground v.1.15,2013-07-19 09:05:00,
2013-07-19 04:10:00,72.0,68.6,29.97,NE,50,1.0,1.0,89,0.00,,,0.00,Wunderground v.1.15,2013-07-19 09:10:00,
2013-07-19 04:15:00,72.0,68.6,29.97,NE,50,0.0,2.0,89,0.00,,,0.00,Wunderground v.1.15,2013-07-19 09:15:00,
2013-07-19 04:20:00,72.0,68.9,29.97,ENE,66,1.0,2.0,90,0.00,,,0.00,Wunderground v.1.15,2013-07-19 09:20:00,
2013-07-19 04:25:00,72.0,68.6,29.97,ENE,66,1.0,2.0,89,0.00,,,0.00,Wunderground v.1.15,2013-07-19 09:25:00,
2013-07-19 04:30:00,71.8,68.4,29.97,ENE,66,0.0,2.0,89,0.00,,,0.00,Wunderground v.1.15,2013-07-19 09:30:00,
2013-07-19 04:35:00,71.8,68.7,29.97,ENE,66,0.0,2.0,90,0.00,,,0.00,Wunderground v.1.15,2013-07-19 09:35:00,
2013-07-19 04:40:00,71.8,68.7,29.97,ENE,64,0.0,2.0,90,0.00,,,0.00,Wunderground v.1.15,2013-07-19 09:40:00,
2013-07-19 04:45:00,71.8,68.7,29.97,ENE,64,1.0,2.0,90,0.00,,,0.00,Wunderground v.1.15,2013-07-19 09:45:00,
2013-07-19 04:50:00,71.8,68.7,29.97,ENE,64,0.0,2.0,90,0.00,,,0.00,Wunderground v.1.15,2013-07-19 09:50:00,
2013-07-19 04:55:00,71.6,68.5,29.97,ENE,64,0.0,2.0,90,0.00,,,0.00,Wunderground v.1.15,2013-07-19 09:55:00,
2013-07-19 05:00:00,71.6,68.5,29.97,ENE,64,1.0,1.0,90,0.00,,,0.00,Wunderground v.1.15,2013-07-19 10:00:00,
2013-07-19 05:05:00,71.6,68.5,29.97,ENE,64,1.0,2.0,90,0.00,,,0.00,Wunderground v.1.15,2013-07-19 10:05:00,
2013-07-19 05:10:00,71.5,68.4,29.97,ENE,64,0.0,2.0,90,0.00,,,0.00,Wunderground v.1.15,2013-07-19 10:10:00,
2013-07-19 05:15:00,71.5,68.7,29.97,ENE,64,0.0,2.0,91,0.00,,,0.00,Wunderground v.1.15,2013-07-19 10:15:00,
2013-07-19 05:20:00,71.5,68.7,29.96,ENE,64,0.0,2.0,91,0.00,,,0.00,Wunderground v.1.15,2013-07-19 10:20:00,
2013-07-19 05:25:00,71.3,68.5,29.96,ENE,64,0.0,2.0,91,0.00,,,0.00,Wunderground v.1.15,2013-07-19 10:25:00,
2013-07-19 05:30:00,71.3,68.5,29.97,ENE,64,0.0,2.0,91,0.00,,,0.00,Wunderground v.1.15,2013-07-19 10:30:00,
2013-07-19 05:35:00,71.1,68.3,29.97,ENE,64,0.0,2.0,91,0.00,,,0.00,Wunderground v.1.15,2013-07-19 10:35:00,
2013-07-19 05:40:00,71.1,68.3,29.97,ENE,64,0.0,2.0,91,0.00,,,0.00,Wunderground v.1.15,2013-07-19 10:40:00,
2013-07-19 05:45:00,71.1,68.3,29.97,ENE,64,0.0,2.0,91,0.00,,,0.00,Wunderground v.1.15,2013-07-19 10:45:00,
2013-07-19 05:50:00,70.9,68.5,29.97,ENE,64,0.0,2.0,92,0.00,,,0.00,Wunderground v.1.15,2013-07-19 10:50:00,
2013-07-19 05:55:00,70.9,68.5,29.97,ENE,64,0.0,2.0,92,0.00,,,0.00,Wunderground v.1.15,2013-07-19 10:55:00,
2013-07-19 06:00:00,70.8,68.4,29.97,ENE,64,0.0,2.0,92,0.00,,,0.00,Wunderground v.1.15,2013-07-19 11:00:00,
2013-07-19 06:03:00,70.8,68.4,29.97,ENE,64,0.0,0.0,92,0.00,,---,0.00,VWS V14.01,2013-07-19 11:03:00,
2013-07-19 06:04:00,70.8,68.4,29.98,ENE,64,0.0,0.0,92,0.00,,---,0.00,VWS V14.01,2013-07-19 11:04:00,
2013-07-19 06:05:00,70.8,68.4,29.97,ENE,64,0.0,0.0,92,0.00,,,0.00,Wunderground v.1.15,2013-07-19 11:05:00,
2013-07-19 06:09:00,70.8,68.4,29.98,ENE,64,0.0,0.0,92,0.00,,---,0.00,VWS V14.01,2013-07-19 11:09:00,
2013-07-19 06:15:00,70.6,68.2,29.98,ENE,64,0.0,0.0,92,0.00,,,0.00,Wunderground v.1.15,2013-07-19 11:15:00,
2013-07-19 06:20:00,70.6,68.2,29.98,ENE,64,0.0,0.0,92,0.00,,,0.00,Wunderground v.1.15,2013-07-19 11:20:00,
2013-07-19 06:25:00,70.4,68.0,29.98,ENE,64,0.0,0.0,92,0.00,,,0.00,Wunderground v.1.15,2013-07-19 11:25:00,
2013-07-19 06:30:00,70.3,67.9,29.98,ENE,64,0.0,0.0,92,0.00,,,0.00,Wunderground v.1.15,2013-07-19 11:30:00,
2013-07-19 06:35:00,70.3,67.9,29.97,ENE,64,0.0,0.0,92,0.00,,,0.00,Wunderground v.1.15,2013-07-19 11:35:00,
2013-07-19 06:40:00,70.3,68.2,29.97,ENE,64,0.0,0.0,93,0.00,,,0.00,Wunderground v.1.15,2013-07-19 11:40:00,
2013-07-19 06:45:00,70.4,68.3,29.98,ENE,64,0.0,0.0,93,0.00,,,0.00,Wunderground v.1.15,2013-07-19 11:45:00,
2013-07-19 06:50:00,70.4,68.3,29.98,ENE,64,0.0,0.0,93,0.00,,,0.00,Wunderground v.1.15,2013-07-19 11:50:00,
2013-07-19 06:55:00,70.6,68.5,29.98,ENE,64,0.0,0.0,93,0.00,,,0.00,Wunderground v.1.15,2013-07-19 11:55:00,
2013-07-19 07:00:00,70.8,68.7,29.98,ENE,64,0.0,0.0,93,0.00,,,0.00,Wunderground v.1.15,2013-07-19 12:00:00,
2013-07-19 07:05:00,70.8,68.7,29.98,ENE,64,0.0,0.0,93,0.00,,,0.00,Wunderground v.1.15,2013-07-19 12:05:00,
2013-07-19 07:10:00,70.9,68.8,29.98,ENE,64,0.0,0.0,93,0.00,,---,0.00,VWS V14.01,2013-07-19 12:10:00,
2013-07-19 07:15:00,71.1,69.0,29.98,ENE,64,0.0,0.0,93,0.00,,,0.00,Wunderground v.1.15,2013-07-19 12:15:00,
2013-07-19 07:20:00,71.3,69.5,29.98,ENE,64,0.0,0.0,94,0.00,,---,0.00,VWS V14.01,2013-07-19 12:20:00,
2013-07-19 07:25:00,71.3,69.2,29.99,ENE,64,0.0,0.0,93,0.00,,,0.00,Wunderground v.1.15,2013-07-19 12:25:00,
2013-07-19 07:30:00,71.5,69.4,29.99,ENE,64,0.0,0.0,93,0.00,,,0.00,Wunderground v.1.15,2013-07-19 12:30:00,
2013-07-19 07:35:00,71.6,69.5,29.99,ENE,64,0.0,0.0,93,0.00,,,0.00,Wunderground v.1.15,2013-07-19 12:35:00,
2013-07-19 07:40:00,71.6,69.5,29.99,ENE,64,0.0,0.0,93,0.00,,---,0.00,VWS V14.01,2013-07-19 12:40:00,
2013-07-19 07:45:00,71.6,69.5,29.99,ENE,64,0.0,0.0,93,0.00,,,0.00,Wunderground v.1.15,2013-07-19 12:45:00,
2013-07-19 07:50:00,71.6,69.5,29.99,ENE,64,0.0,0.0,93,0.00,,,0.00,Wunderground v.1.15,2013-07-19 12:50:00,
2013-07-19 07:55:00,71.8,69.7,29.99,ENE,64,0.0,0.0,93,0.00,,,0.00,Wunderground v.1.15,2013-07-19 12:55:00,
2013-07-19 08:00:00,71.8,69.7,29.99,ENE,64,0.0,0.0,93,0.00,,---,0.00,VWS V14.01,2013-07-19 13:00:00,
2013-07-19 08:05:00,72.1,70.0,29.99,ENE,64,0.0,0.0,93,0.00,,,0.00,Wunderground v.1.15,2013-07-19 13:05:00,
2013-07-19 08:10:00,72.3,69.8,29.99,ENE,64,0.0,0.0,92,0.00,,,0.00,Wunderground v.1.15,2013-07-19 13:10:00,
2013-07-19 08:15:00,72.7,70.2,29.99,ENE,64,0.0,0.0,92,0.00,,,0.00,Wunderground v.1.15,2013-07-19 13:15:00,
2013-07-19 08:20:00,73.2,70.7,29.99,ENE,64,0.0,0.0,92,0.00,,,0.00,Wunderground v.1.15,2013-07-19 13:20:00,
2013-07-19 08:30:00,74.4,70.9,30.00,ENE,64,2.0,3.0,89,0.00,,---,0.00,VWS V14.01,2013-07-19 13:30:00,
2013-07-19 08:35:00,74.6,70.5,30.00,ENE,64,1.0,1.0,87,0.00,,,0.00,Wunderground v.1.15,2013-07-19 13:35:00,
2013-07-19 08:40:00,74.6,70.5,30.00,ENE,64,1.0,2.0,87,0.00,,,0.00,Wunderground v.1.15,2013-07-19 13:40:00,
2013-07-19 08:45:00,74.6,70.1,30.00,ENE,64,1.0,2.0,86,0.00,,,0.00,Wunderground v.1.15,2013-07-19 13:45:00,
2013-07-19 08:50:00,74.6,70.5,30.00,ENE,64,1.0,2.0,87,0.00,,,0.00,Wunderground v.1.15,2013-07-19 13:50:00,
2013-07-19 08:55:00,74.6,70.5,30.00,ENE,64,1.0,2.0,87,0.00,,,0.00,Wunderground v.1.15,2013-07-19 13:55:00,
2013-07-19 09:00:00,74.6,70.1,30.00,ENE,64,1.0,1.0,86,0.00,,,0.00,Wunderground v.1.15,2013-07-19 14:00:00,
2013-07-19 09:05:00,74.6,70.1,30.00,ENE,64,1.0,1.0,86,0.00,,,0.00,Wunderground v.1.15,2013-07-19 14:05:00,
2013-07-19 09:10:00,74.7,70.2,30.00,ENE,64,1.0,1.0,86,0.00,,,0.00,Wunderground v.1.15,2013-07-19 14:10:00,
2013-07-19 09:15:00,74.9,70.4,30.00,ENE,64,1.0,1.0,86,0.00,,,0.00,Wunderground v.1.15,2013-07-19 14:15:00,
2013-07-19 09:20:00,75.3,70.5,30.00,ENE,64,1.0,1.0,85,0.00,,,0.00,Wunderground v.1.15,2013-07-19 14:20:00,
2013-07-19 09:25:00,75.4,70.6,30.00,ENE,64,1.0,1.0,85,0.00,,,0.00,Wunderground v.1.15,2013-07-19 14:25:00,
2013-07-19 09:30:00,76.0,71.2,30.00,ENE,64,0.0,2.0,85,0.00,,,0.00,Wunderground v.1.15,2013-07-19 14:30:00,
2013-07-19 09:35:00,76.3,70.8,30.00,ENE,68,1.0,2.0,83,0.00,,,0.00,Wunderground v.1.15,2013-07-19 14:35:00,
2013-07-19 09:40:00,76.5,71.3,30.00,SE,128,2.0,5.0,84,0.00,,---,0.00,VWS V14.01,2013-07-19 14:40:00,
2013-07-19 09:45:00,76.7,70.4,30.00,SE,139,1.0,3.0,81,0.00,,,0.00,Wunderground v.1.15,2013-07-19 14:45:00,
2013-07-19 09:50:00,77.0,70.7,30.00,SE,139,1.0,1.0,81,0.00,,,0.00,Wunderground v.1.15,2013-07-19 14:50:00,
2013-07-19 09:55:00,77.4,70.7,29.99,SE,139,1.0,1.0,80,0.00,,,0.00,Wunderground v.1.15,2013-07-19 14:55:00,
2013-07-19 10:00:00,77.6,70.9,30.00,SE,139,1.0,1.0,80,0.00,,,0.00,Wunderground v.1.15,2013-07-19 15:00:00,
2013-07-19 10:05:00,77.7,70.7,29.99,SE,139,1.0,2.0,79,0.00,,,0.00,Wunderground v.1.15,2013-07-19 15:05:00,
2013-07-19 10:10:00,77.9,70.5,29.99,SE,139,1.0,1.0,78,0.00,,,0.00,Wunderground v.1.15,2013-07-19 15:10:00,
2013-07-19 10:15:00,78.1,70.7,29.99,SE,139,1.0,1.0,78,0.00,,,0.00,Wunderground v.1.15,2013-07-19 15:15:00,
2013-07-19 10:20:00,78.1,70.7,29.99,SE,139,0.0,1.0,78,0.00,,---,0.00,VWS V14.01,2013-07-19 15:20:00,
2013-07-19 10:25:00,78.6,71.2,29.99,SE,139,1.0,1.0,78,0.00,,,0.00,Wunderground v.1.15,2013-07-19 15:25:00,
2013-07-19 10:30:00,78.6,71.2,29.99,SSE,150,1.0,1.0,78,0.00,,,0.00,Wunderground v.1.15,2013-07-19 15:30:00,
2013-07-19 10:31:00,79.0,71.6,29.99,SSE,150,1.0,1.0,78,0.00,,---,0.00,VWS V14.01,2013-07-19 15:31:00,
2013-07-19 10:35:00,79.0,71.2,29.99,SE,139,1.0,1.0,77,0.00,,,0.00,Wunderground v.1.15,2013-07-19 15:35:00,
2013-07-19 10:37:00,79.2,71.4,29.99,SE,139,3.0,3.0,77,0.00,,---,0.00,VWS V14.01,2013-07-19 15:37:00,
2013-07-19 10:40:00,79.2,71.4,29.99,SE,139,1.0,2.0,77,0.00,,,0.00,Wunderground v.1.15,2013-07-19 15:40:00,
2013-07-19 10:42:00,79.2,71.4,29.99,SE,139,0.0,2.0,77,0.00,,---,0.00,VWS V14.01,2013-07-19 15:42:00,
2013-07-19 10:45:00,79.6,71.8,29.99,SE,138,1.0,2.0,77,0.00,,,0.00,Wunderground v.1.15,2013-07-19 15:45:00,
2013-07-19 10:47:00,79.6,71.8,29.99,SE,138,1.0,3.0,77,0.00,,---,0.00,VWS V14.01,2013-07-19 15:47:00,
2013-07-19 10:50:00,80.1,72.2,29.99,SE,138,1.0,1.0,77,0.00,,,0.00,Wunderground v.1.15,2013-07-19 15:50:00,
2013-07-19 10:52:00,80.1,71.5,29.99,SE,138,0.0,2.0,75,0.00,,---,0.00,VWS V14.01,2013-07-19 15:52:00,
2013-07-19 10:55:00,80.5,72.2,29.99,SE,138,1.0,2.0,76,0.00,,,0.00,Wunderground v.1.15,2013-07-19 15:55:00,
2013-07-19 10:57:00,81.1,72.4,29.99,SE,138,1.0,2.0,75,0.00,,---,0.00,VWS V14.01,2013-07-19 15:57:00,
2013-07-19 11:00:00,81.1,72.4,29.99,ESE,107,1.0,1.0,75,0.00,,,0.00,Wunderground v.1.15,2013-07-19 16:00:00,
2013-07-19 11:03:00,81.4,72.7,29.99,ESE,107,3.0,3.0,75,0.00,,---,0.00,VWS V14.01,2013-07-19 16:03:00,
2013-07-19 11:05:00,81.6,72.9,29.99,ESE,108,1.0,1.0,75,0.00,,,0.00,Wunderground v.1.15,2013-07-19 16:05:00,
2013-07-19 11:08:00,82.0,72.9,29.99,SSE,163,1.0,3.0,74,0.00,,---,0.00,VWS V14.01,2013-07-19 16:08:00,
2013-07-19 11:10:00,82.2,73.1,29.99,SSE,163,2.0,2.0,74,0.00,,,0.00,Wunderground v.1.15,2013-07-19 16:10:00,
2013-07-19 11:13:00,82.4,72.1,29.99,SSE,166,1.0,2.0,71,0.00,,---,0.00,VWS V14.01,2013-07-19 16:13:00,
2013-07-19 11:15:00,82.4,72.0,29.99,SSE,166,2.0,2.0,71,0.00,,,0.00,Wunderground v.1.15,2013-07-19 16:15:00,
2013-07-19 11:18:00,82.6,72.2,29.99,ENE,77,1.0,5.0,71,0.00,,---,0.00,VWS V14.01,2013-07-19 16:18:00,
2013-07-19 11:20:00,82.4,72.0,29.99,ENE,77,2.0,2.0,71,0.00,,,0.00,Wunderground v.1.15,2013-07-19 16:20:00,
2013-07-19 11:23:00,82.4,72.5,29.99,ENE,78,2.0,3.0,72,0.00,,---,0.00,VWS V14.01,2013-07-19 16:23:00,
2013-07-19 11:25:00,82.4,72.5,29.99,South,170,2.0,2.0,72,0.00,,,0.00,Wunderground v.1.15,2013-07-19 16:25:00,
2013-07-19 11:28:00,82.6,72.7,29.99,ENE,63,5.0,7.0,72,0.00,,---,0.00,VWS V14.01,2013-07-19 16:28:00,
2013-07-19 11:30:00,82.4,72.0,29.99,ENE,63,3.0,3.0,71,0.00,,,0.00,Wunderground v.1.15,2013-07-19 16:30:00,
2013-07-19 11:33:00,82.4,72.1,29.99,ENE,59,0.0,5.0,71,0.00,,---,0.00,VWS V14.01,2013-07-19 16:33:00,
2013-07-19 11:35:00,82.4,72.5,29.99,SSE,162,3.0,3.0,72,0.00,,,0.00,Wunderground v.1.15,2013-07-19 16:35:00,
2013-07-19 11:39:00,82.6,72.2,29.99,SSW,197,2.0,5.0,71,0.00,,---,0.00,VWS V14.01,2013-07-19 16:39:00,
2013-07-19 11:40:00,82.6,72.2,29.99,SSW,197,2.0,2.0,71,0.00,,,0.00,Wunderground v.1.15,2013-07-19 16:40:00,
2013-07-19 11:44:00,83.0,72.6,29.99,SE,139,2.0,3.0,71,0.00,,---,0.00,VWS V14.01,2013-07-19 16:44:00,
2013-07-19 11:45:00,83.2,72.8,29.99,SE,136,2.0,2.0,71,0.00,,,0.00,Wunderground v.1.15,2013-07-19 16:45:00,
2013-07-19 11:49:00,83.6,73.2,29.99,ENE,59,3.0,5.0,71,0.00,,---,0.00,VWS V14.01,2013-07-19 16:49:00,
2013-07-19 11:50:00,83.6,71.9,29.99,ENE,59,2.0,2.0,68,0.00,,,0.00,Wunderground v.1.15,2013-07-19 16:50:00,
2013-07-19 11:54:00,83.8,72.1,29.99,South,179,1.0,5.0,68,0.00,,---,0.00,VWS V14.01,2013-07-19 16:54:00,
2013-07-19 11:55:00,83.8,72.1,29.99,South,180,2.0,3.0,68,0.00,,,0.00,Wunderground v.1.15,2013-07-19 16:55:00,
2013-07-19 11:59:00,84.0,72.7,29.98,SSE,155,1.0,5.0,69,0.00,,---,0.00,VWS V14.01,2013-07-19 16:59:00,
2013-07-19 12:00:00,84.0,72.7,29.98,South,187,3.0,3.0,69,0.00,,,0.00,Wunderground v.1.15,2013-07-19 17:00:00,
2013-07-19 12:04:00,83.8,72.1,29.98,South,177,2.0,6.0,68,0.00,,---,0.00,VWS V14.01,2013-07-19 17:04:00,
2013-07-19 12:05:00,83.8,72.1,29.98,SSE,155,3.0,3.0,68,0.00,,,0.00,Wunderground v.1.15,2013-07-19 17:05:00,
2013-07-19 12:10:00,84.0,72.7,29.98,South,187,2.0,7.0,69,0.00,,---,0.00,VWS V14.01,2013-07-19 17:10:00,
2013-07-19 12:15:00,84.5,73.2,29.98,ESE,105,2.0,3.0,69,0.00,,,0.00,Wunderground v.1.15,2013-07-19 17:15:00,
2013-07-19 12:20:00,84.9,72.7,29.98,SE,139,2.0,3.0,67,0.00,,,0.00,Wunderground v.1.15,2013-07-19 17:20:00,
2013-07-19 12:21:00,84.9,72.7,29.98,South,170,5.0,7.0,67,0.00,,---,0.00,VWS V14.01,2013-07-19 17:21:00,
2013-07-19 12:25:00,85.1,72.9,29.97,South,188,3.0,3.0,67,0.00,,,0.00,Wunderground v.1.15,2013-07-19 17:25:00,
2013-07-19 12:26:00,85.1,72.9,29.97,South,176,5.0,7.0,67,0.00,,---,0.00,VWS V14.01,2013-07-19 17:26:00,
2013-07-19 12:30:00,85.1,72.9,29.97,SW,228,3.0,3.0,67,0.00,,,0.00,Wunderground v.1.15,2013-07-19 17:30:00,
2013-07-19 12:31:00,86.3,74.1,29.97,SE,132,1.0,3.0,67,0.00,,---,0.00,VWS V14.01,2013-07-19 17:31:00,
2013-07-19 12:35:00,86.7,74.4,29.97,SSW,198,3.0,3.0,67,0.00,,,0.00,Wunderground v.1.15,2013-07-19 17:35:00,
2013-07-19 12:37:00,86.7,74.4,29.96,SSW,198,0.0,6.0,67,0.00,,---,0.00,VWS V14.01,2013-07-19 17:37:00,
2013-07-19 12:40:00,86.7,73.1,29.96,South,180,2.0,2.0,64,0.00,,,0.00,Wunderground v.1.15,2013-07-19 17:40:00,
2013-07-19 12:42:00,86.7,74.4,29.96,South,179,1.0,1.0,67,0.00,,---,0.00,VWS V14.01,2013-07-19 17:42:00,
2013-07-19 12:45:00,87.0,74.7,29.96,NE,56,2.0,6.0,67,0.00,,,0.00,Wunderground v.1.15,2013-07-19 17:45:00,
2013-07-19 12:47:00,87.2,74.9,29.96,SE,128,3.0,6.0,67,0.00,,---,0.00,VWS V14.01,2013-07-19 17:47:00,
2013-07-19 12:50:00,87.4,75.1,29.96,ENE,73,2.0,6.0,67,0.00,,,0.00,Wunderground v.1.15,2013-07-19 17:50:00,
2013-07-19 12:52:00,87.2,74.9,29.96,South,186,6.0,6.0,67,0.00,,---,0.00,VWS V14.01,2013-07-19 17:52:00,
2013-07-19 12:55:00,86.5,73.3,29.96,ENE,74,3.0,6.0,65,0.00,,,0.00,Wunderground v.1.15,2013-07-19 17:55:00,
2013-07-19 12:57:00,86.3,73.2,29.96,ENE,74,1.0,6.0,65,0.00,,---,0.00,VWS V14.01,2013-07-19 17:57:00,
2013-07-19 13:00:00,86.5,73.3,29.96,ENE,73,3.0,3.0,65,0.00,,,0.00,Wunderground v.1.15,2013-07-19 18:00:00,
2013-07-19 13:02:00,86.5,73.3,29.96,South,191,1.0,3.0,65,0.00,,---,0.00,VWS V14.01,2013-07-19 18:02:00,
2013-07-19 13:05:00,86.3,73.1,29.96,ENE,61,1.0,6.0,65,0.00,,,0.00,Wunderground v.1.15,2013-07-19 18:05:00,
2013-07-19 13:08:00,86.3,73.2,29.96,East,98,1.0,6.0,65,0.00,,---,0.00,VWS V14.01,2013-07-19 18:08:00,
2013-07-19 13:10:00,86.1,73.0,29.96,South,188,2.0,6.0,65,0.00,,,0.00,Wunderground v.1.15,2013-07-19 18:10:00,
2013-07-19 13:13:00,86.1,73.0,29.96,SSW,195,5.0,6.0,65,0.00,,---,0.00,VWS V14.01,2013-07-19 18:13:00,
2013-07-19 13:15:00,86.1,73.0,29.96,South,190,4.0,6.0,65,0.00,,,0.00,Wunderground v.1.15,2013-07-19 18:15:00,
2013-07-19 13:18:00,86.3,73.2,29.95,NE,40,2.0,6.0,65,0.00,,---,0.00,VWS V14.01,2013-07-19 18:18:00,
2013-07-19 13:20:00,86.5,73.3,29.95,ENE,59,3.0,3.0,65,0.00,,,0.00,Wunderground v.1.15,2013-07-19 18:20:00,
2013-07-19 13:23:00,86.5,73.3,29.95,South,191,6.0,6.0,65,0.00,,---,0.00,VWS V14.01,2013-07-19 18:23:00,
2013-07-19 13:25:00,86.5,73.3,29.95,SSE,159,3.0,6.0,65,0.00,,,0.00,Wunderground v.1.15,2013-07-19 18:25:00,
2013-07-19 13:29:00,86.3,75.4,29.95,WNW,293,2.0,6.0,70,0.00,,---,0.00,VWS V14.01,2013-07-19 18:29:00,
2013-07-19 13:30:00,86.5,75.5,29.95,South,190,3.0,6.0,70,0.00,,,0.00,Wunderground v.1.15,2013-07-19 18:30:00,
2013-07-19 13:34:00,86.5,75.6,29.95,South,186,2.0,3.0,70,0.00,,---,0.00,VWS V14.01,2013-07-19 18:34:00,
2013-07-19 13:35:00,86.5,75.5,29.95,South,186,2.0,6.0,70,0.00,,,0.00,Wunderground v.1.15,2013-07-19 18:35:00,
2013-07-19 13:39:00,86.5,75.6,29.95,SSW,211,5.0,10.0,70,0.00,,---,0.00,VWS V14.01,2013-07-19 18:39:00,
2013-07-19 13:40:00,86.5,75.5,29.95,East,85,3.0,3.0,70,0.00,,,0.00,Wunderground v.1.15,2013-07-19 18:40:00,
2013-07-19 13:44:00,86.1,75.2,29.95,ENE,57,7.0,7.0,70,0.00,,---,0.00,VWS V14.01,2013-07-19 18:44:00,
2013-07-19 13:45:00,85.9,75.0,29.95,NE,56,4.0,4.0,70,0.00,,,0.00,Wunderground v.1.15,2013-07-19 18:45:00,
2013-07-19 13:49:00,86.3,74.5,29.95,NE,43,7.0,7.0,68,0.00,,---,0.00,VWS V14.01,2013-07-19 18:49:00,
2013-07-19 13:50:00,86.3,74.5,29.94,NE,42,3.0,3.0,68,0.00,,,0.00,Wunderground v.1.15,2013-07-19 18:50:00,
2013-07-19 13:55:00,86.5,74.7,29.94,ENE,71,10.0,10.0,68,0.00,,---,0.00,VWS V14.01,2013-07-19 18:55:00,
2013-07-19 14:00:00,86.3,74.1,29.94,NE,56,3.0,10.0,67,0.00,,---,0.00,VWS V14.01,2013-07-19 19:00:00,
2013-07-19 14:05:00,86.3,74.5,29.94,North,11,1.0,7.0,68,0.00,,---,0.00,VWS V14.01,2013-07-19 19:05:00,
2013-07-19 14:10:00,85.1,73.3,29.94,ESE,104,3.0,6.0,68,0.00,,,0.00,Wunderground v.1.15,2013-07-19 19:10:00,
2013-07-19 14:15:00,84.9,73.2,29.94,SSE,147,3.0,6.0,68,0.00,,,0.00,Wunderground v.1.15,2013-07-19 19:15:00,
2013-07-19 14:20:00,84.7,73.0,29.93,NNW,345,2.0,2.0,68,0.00,,,0.00,Wunderground v.1.15,2013-07-19 19:20:00,
2013-07-19 14:25:00,83.8,72.5,29.93,NE,44,3.0,5.0,69,0.00,,,0.00,Wunderground v.1.15,2013-07-19 19:25:00,
2013-07-19 14:30:00,83.2,73.2,29.94,ENE,64,4.0,6.0,72,0.00,,,0.00,Wunderground v.1.15,2013-07-19 19:30:00,
2013-07-19 14:35:00,82.2,72.7,29.94,SSE,159,3.0,6.0,73,0.00,,,0.00,Wunderground v.1.15,2013-07-19 19:35:00,
2013-07-19 14:40:00,81.8,72.3,29.94,SSW,208,2.0,6.0,73,0.00,,,0.00,Wunderground v.1.15,2013-07-19 19:40:00,
2013-07-19 14:45:00,81.4,72.7,29.94,SSW,201,2.0,6.0,75,0.00,,,0.00,Wunderground v.1.15,2013-07-19 19:45:00,
2013-07-19 14:50:00,81.1,72.4,29.93,SSE,162,2.0,6.0,75,0.00,,,0.00,Wunderground v.1.15,2013-07-19 19:50:00,
2013-07-19 14:55:00,80.9,73.0,29.93,South,170,3.0,6.0,77,0.00,,,0.00,Wunderground v.1.15,2013-07-19 19:55:00,
2013-07-19 15:00:00,80.7,72.0,29.93,SSW,194,3.0,6.0,75,0.00,,,0.00,Wunderground v.1.15,2013-07-19 20:00:00,
2013-07-19 15:05:00,80.9,72.6,29.92,ESE,119,3.0,6.0,76,0.00,,,0.00,Wunderground v.1.15,2013-07-19 20:05:00,
2013-07-19 15:10:00,81.2,72.5,29.92,South,184,3.0,6.0,75,0.00,,,0.00,Wunderground v.1.15,2013-07-19 20:10:00,
2013-07-19 15:15:00,81.2,71.7,29.92,South,191,4.0,6.0,73,0.00,,,0.00,Wunderground v.1.15,2013-07-19 20:15:00,
2013-07-19 15:20:00,81.2,71.7,29.93,South,177,4.0,4.0,73,0.00,,,0.00,Wunderground v.1.15,2013-07-19 20:20:00,
2013-07-19 15:25:00,81.2,71.7,29.93,South,181,4.0,5.0,73,0.00,,,0.00,Wunderground v.1.15,2013-07-19 20:25:00,
2013-07-19 15:30:00,81.1,70.8,29.93,SSE,156,4.0,4.0,71,0.00,,,0.00,Wunderground v.1.15,2013-07-19 20:30:00,
2013-07-19 15:35:00,81.1,70.8,29.94,SSW,201,3.0,6.0,71,0.00,,,0.00,Wunderground v.1.15,2013-07-19 20:35:00,
2013-07-19 15:40:00,81.1,71.2,29.94,SSW,210,2.0,6.0,72,0.00,,,0.00,Wunderground v.1.15,2013-07-19 20:40:00,
2013-07-19 15:45:00,81.1,71.2,29.93,South,184,2.0,6.0,72,0.00,,,0.00,Wunderground v.1.15,2013-07-19 20:45:00,
2013-07-19 15:50:00,81.1,71.2,29.93,South,184,1.0,6.0,72,0.00,,,0.00,Wunderground v.1.15,2013-07-19 20:50:00,
2013-07-19 15:55:00,81.1,71.2,29.94,West,266,2.0,6.0,72,0.00,,,0.00,Wunderground v.1.15,2013-07-19 20:55:00,
2013-07-19 16:00:00,80.5,70.6,29.94,West,275,3.0,6.0,72,0.00,,,0.00,Wunderground v.1.15,2013-07-19 21:00:00,
2013-07-19 16:05:00,79.6,71.0,29.93,West,275,4.0,6.0,75,0.00,,,0.00,Wunderground v.1.15,2013-07-19 21:05:00,
2013-07-19 16:10:00,78.8,70.6,29.93,West,276,4.0,6.0,76,0.00,,,0.00,Wunderground v.1.15,2013-07-19 21:10:00,
2013-07-19 16:15:00,78.3,70.1,29.92,West,273,4.0,6.0,76,0.00,,,0.00,Wunderground v.1.15,2013-07-19 21:15:00,
2013-07-19 16:20:00,78.1,69.9,29.92,West,273,3.0,3.0,76,0.00,,,0.00,Wunderground v.1.15,2013-07-19 21:20:00,
2013-07-19 16:25:00,78.3,70.9,29.92,West,273,1.0,6.0,78,0.00,,,0.00,Wunderground v.1.15,2013-07-19 21:25:00,
2013-07-19 16:30:00,78.5,70.7,29.91,West,273,1.0,1.0,77,0.00,,,0.00,Wunderground v.1.15,2013-07-19 21:30:00,
2013-07-19 16:35:00,78.8,71.0,29.91,West,272,2.0,2.0,77,0.00,,,0.00,Wunderground v.1.15,2013-07-19 21:35:00,
2013-07-19 16:40:00,79.2,71.0,29.90,ESE,119,1.0,6.0,76,0.00,,,0.00,Wunderground v.1.15,2013-07-19 21:40:00,
2013-07-19 16:45:00,79.6,70.2,29.90,ESE,119,1.0,6.0,73,0.00,,,0.00,Wunderground v.1.15,2013-07-19 21:45:00,
2013-07-19 16:50:00,80.5,70.6,29.89,South,170,2.0,2.0,72,0.00,,,0.00,Wunderground v.1.15,2013-07-19 21:50:00,
2013-07-19 16:55:00,81.8,71.1,29.89,SSW,197,2.0,6.0,70,0.00,,,0.00,Wunderground v.1.15,2013-07-19 21:55:00,
2013-07-19 17:00:00,83.2,72.4,29.89,SSE,164,2.0,6.0,70,0.00,,,0.00,Wunderground v.1.15,2013-07-19 22:00:00,
2013-07-19 17:05:00,83.4,72.6,29.89,SSW,204,2.0,6.0,70,0.00,,,0.00,Wunderground v.1.15,2013-07-19 22:05:00,
2013-07-19 17:10:00,83.8,73.0,29.89,South,176,2.0,6.0,70,0.00,,,0.00,Wunderground v.1.15,2013-07-19 22:10:00,
2013-07-19 17:15:00,83.8,73.0,29.90,ESE,112,2.0,6.0,70,0.00,,,0.00,Wunderground v.1.15,2013-07-19 22:15:00,
2013-07-19 17:20:00,83.8,73.0,29.90,ESE,114,2.0,2.0,70,0.00,,,0.00,Wunderground v.1.15,2013-07-19 22:20:00,
2013-07-19 17:25:00,83.8,73.0,29.91,ESE,114,2.0,3.0,70,0.00,,,0.00,Wunderground v.1.15,2013-07-19 22:25:00,
2013-07-19 17:30:00,83.2,72.0,29.91,West,279,2.0,6.0,69,0.00,,,0.00,Wunderground v.1.15,2013-07-19 22:30:00,
2013-07-19 17:35:00,82.6,71.4,29.91,West,279,4.0,6.0,69,0.00,,,0.00,Wunderground v.1.15,2013-07-19 22:35:00,
2013-07-19 17:40:00,82.2,71.9,29.92,WNW,283,3.0,3.0,71,0.00,,,0.00,Wunderground v.1.15,2013-07-19 22:40:00,
2013-07-19 17:45:00,82.0,72.1,29.91,SSW,198,3.0,6.0,72,0.00,,,0.00,Wunderground v.1.15,2013-07-19 22:45:00,
2013-07-19 17:50:00,82.0,72.1,29.90,West,273,2.0,2.0,72,0.00,,,0.00,Wunderground v.1.15,2013-07-19 22:50:00,
2013-07-19 17:55:00,82.2,72.3,29.90,SW,214,1.0,6.0,72,0.00,,,0.00,Wunderground v.1.15,2013-07-19 22:55:00,
2013-07-19 18:00:00,82.2,72.3,29.90,WSW,255,1.0,1.0,72,0.00,,,0.00,Wunderground v.1.15,2013-07-19 23:00:00,
2013-07-19 18:10:00,82.2,71.9,29.90,West,273,2.0,2.0,71,0.00,,,0.00,Wunderground v.1.15,2013-07-19 23:10:00,
2013-07-19 18:15:00,82.2,71.9,29.90,West,273,2.0,2.0,71,0.00,,,0.00,Wunderground v.1.15,2013-07-19 23:15:00,
2013-07-19 18:20:00,82.2,72.7,29.90,West,273,1.0,1.0,73,0.00,,,0.00,Wunderground v.1.15,2013-07-19 23:20:00,
2013-07-19 18:25:00,82.2,72.7,29.90,West,273,1.0,1.0,73,0.00,,,0.00,Wunderground v.1.15,2013-07-19 23:25:00,
2013-07-19 18:30:00,82.0,72.9,29.90,West,273,0.0,0.0,74,0.00,,,0.00,Wunderground v.1.15,2013-07-19 23:30:00,
2013-07-19 18:35:00,82.0,72.9,29.90,West,273,0.0,0.0,74,0.00,,,0.00,Wunderground v.1.15,2013-07-19 23:35:00,
2013-07-19 18:40:00,82.0,72.5,29.90,West,273,0.0,0.0,73,0.00,,,0.00,Wunderground v.1.15,2013-07-19 23:40:00,
2013-07-19 18:45:00,82.0,72.9,29.90,West,273,0.0,0.0,74,0.00,,,0.00,Wunderground v.1.15,2013-07-19 23:45:00,
2013-07-19 18:50:00,82.0,72.9,29.90,West,273,0.0,1.0,74,0.00,,,0.00,Wunderground v.1.15,2013-07-19 23:50:00,
2013-07-19 18:55:00,82.0,72.9,29.90,West,273,0.0,1.0,74,0.00,,,0.00,Wunderground v.1.15,2013-07-19 23:55:00,
2013-07-19 19:00:00,81.6,73.7,29.90,West,273,0.0,1.0,77,0.00,,,0.00,Wunderground v.1.15,2013-07-20 00:00:00,
2013-07-19 19:10:00,80.9,73.0,29.92,WNW,286,1.0,1.0,77,0.00,,,0.00,Wunderground v.1.15,2013-07-20 00:10:00,
2013-07-19 19:15:00,80.7,72.8,29.92,WNW,286,1.0,1.0,77,0.00,,,0.00,Wunderground v.1.15,2013-07-20 00:15:00,
2013-07-19 19:20:00,80.7,73.2,29.92,WNW,286,0.0,0.0,78,0.00,,,0.00,Wunderground v.1.15,2013-07-20 00:20:00,
2013-07-19 19:25:00,80.5,73.4,29.92,WNW,287,0.0,0.0,79,0.00,,,0.00,Wunderground v.1.15,2013-07-20 00:25:00,
2013-07-19 19:30:00,80.3,73.2,29.92,NW,311,1.0,2.0,79,0.00,,,0.00,Wunderground v.1.15,2013-07-20 00:30:00,
2013-07-19 19:35:00,80.1,73.0,29.92,NNW,339,2.0,3.0,79,0.00,,,0.00,Wunderground v.1.15,2013-07-20 00:35:00,
2013-07-19 19:40:00,79.9,72.8,29.92,NNW,339,1.0,1.0,79,0.00,,,0.00,Wunderground v.1.15,2013-07-20 00:40:00,
2013-07-19 19:45:00,79.8,72.7,29.92,NNW,339,0.0,1.0,79,0.00,,,0.00,Wunderground v.1.15,2013-07-20 00:45:00,
2013-07-19 19:50:00,79.2,72.9,29.91,NNW,339,1.0,2.0,81,0.00,,,0.00,Wunderground v.1.15,2013-07-20 00:50:00,
2013-07-19 19:55:00,78.6,73.0,29.91,NNW,339,2.0,2.0,83,0.00,,,0.00,Wunderground v.1.15,2013-07-20 00:55:00,
2013-07-19 20:00:00,78.3,73.1,29.91,NNW,339,2.0,2.0,84,0.00,,,0.00,Wunderground v.1.15,2013-07-20 01:00:00,
2013-07-19 20:10:00,77.7,72.5,29.90,North,9,2.0,2.0,84,0.00,,,0.00,Wunderground v.1.15,2013-07-20 01:10:00,
2013-07-19 20:15:00,77.6,72.4,29.90,North,9,2.0,2.0,84,0.00,,,0.00,Wunderground v.1.15,2013-07-20 01:15:00,
2013-07-19 20:20:00,77.6,72.7,29.90,North,9,0.0,2.0,85,0.00,,,0.00,Wunderground v.1.15,2013-07-20 01:20:00,
2013-07-19 20:25:00,77.4,72.2,29.90,North,9,0.0,2.0,84,0.00,,,0.00,Wunderground v.1.15,2013-07-20 01:25:00,
2013-07-19 20:35:00,77.2,72.3,29.90,North,9,0.0,0.0,85,0.00,,,0.00,Wunderground v.1.15,2013-07-20 01:35:00,
2013-07-19 20:40:00,77.0,72.1,29.90,North,9,0.0,0.0,85,0.00,,,0.00,Wunderground v.1.15,2013-07-20 01:40:00,
2013-07-19 20:50:00,76.5,72.0,29.90,NNE,18,2.0,2.0,86,0.00,,,0.00,Wunderground v.1.15,2013-07-20 01:50:00,
2013-07-19 20:55:00,76.3,71.8,29.90,NNE,18,1.0,2.0,86,0.00,,,0.00,Wunderground v.1.15,2013-07-20 01:55:00,
2013-07-19 21:00:00,76.1,71.6,29.90,NNE,16,0.0,0.0,86,0.00,,,0.00,Wunderground v.1.15,2013-07-20 02:00:00,
2013-07-19 21:05:00,76.0,71.5,29.90,NNE,16,0.0,0.0,86,0.00,,,0.00,Wunderground v.1.15,2013-07-20 02:05:00,
2013-07-19 21:10:00,75.8,71.3,29.90,NNE,16,1.0,1.0,86,0.00,,,0.00,Wunderground v.1.15,2013-07-20 02:10:00,
2013-07-19 21:15:00,75.8,71.3,29.90,NNE,16,1.0,3.0,86,0.00,,,0.00,Wunderground v.1.15,2013-07-20 02:15:00,
2013-07-19 21:20:00,75.6,70.8,29.90,NNE,16,1.0,1.0,85,0.00,,,0.00,Wunderground v.1.15,2013-07-20 02:20:00,
2013-07-19 21:25:00,75.6,70.8,29.90,NNE,16,0.0,1.0,85,0.00,,,0.00,Wunderground v.1.15,2013-07-20 02:25:00,
2013-07-19 21:35:00,75.4,70.9,29.90,NNE,16,0.0,0.0,86,0.00,,,0.00,Wunderground v.1.15,2013-07-20 02:35:00,
2013-07-19 21:40:00,75.3,70.8,29.90,NNE,16,0.0,0.0,86,0.00,,,0.00,Wunderground v.1.15,2013-07-20 02:40:00,
2013-07-19 21:45:00,75.1,71.0,29.90,NNE,16,0.0,0.0,87,0.00,,,0.00,Wunderground v.1.15,2013-07-20 02:45:00,
2013-07-19 21:50:00,74.9,70.8,29.89,NNE,16,0.0,0.0,87,0.00,,,0.00,Wunderground v.1.15,2013-07-20 02:50:00,
2013-07-19 21:55:00,74.9,70.8,29.89,NNE,16,0.0,0.0,87,0.00,,,0.00,Wunderground v.1.15,2013-07-20 02:55:00,
2013-07-19 22:00:00,74.7,70.6,29.89,NNE,16,0.0,0.0,87,0.00,,,0.00,Wunderground v.1.15,2013-07-20 03:00:00,
2013-07-19 22:10:00,74.4,70.6,29.89,NNE,16,0.0,0.0,88,0.00,,,0.00,Wunderground v.1.15,2013-07-20 03:10:00,
2013-07-19 22:20:00,74.0,70.6,29.89,NNE,16,0.0,0.0,89,0.00,,,0.00,Wunderground v.1.15,2013-07-20 03:20:00,
2013-07-19 22:25:00,73.9,70.8,29.90,NNE,16,0.0,0.0,90,0.00,,,0.00,Wunderground v.1.15,2013-07-20 03:25:00,
2013-07-19 22:30:00,73.5,70.7,29.89,NNE,16,0.0,0.0,91,0.00,,,0.00,Wunderground v.1.15,2013-07-20 03:30:00,
2013-07-19 22:35:00,73.3,70.5,29.90,NNE,16,0.0,0.0,91,0.00,,,0.00,Wunderground v.1.15,2013-07-20 03:35:00,
2013-07-19 22:40:00,73.0,70.2,29.90,NNE,16,0.0,0.0,91,0.00,,,0.00,Wunderground v.1.15,2013-07-20 03:40:00,
2013-07-19 22:45:00,72.8,70.0,29.90,NNE,16,0.0,0.0,91,0.00,,,0.00,Wunderground v.1.15,2013-07-20 03:45:00,
2013-07-19 22:50:00,72.7,70.2,29.90,NNE,16,0.0,0.0,92,0.00,,,0.00,Wunderground v.1.15,2013-07-20 03:50:00,
2013-07-19 22:55:00,72.5,70.0,29.90,NNE,16,0.0,0.0,92,0.00,,,0.00,Wunderground v.1.15,2013-07-20 03:55:00,
2013-07-19 23:00:00,72.5,70.0,29.90,NNE,16,0.0,0.0,92,0.00,,,0.00,Wunderground v.1.15,2013-07-20 04:00:00,
2013-07-19 23:05:00,72.3,69.8,29.90,NNE,16,0.0,0.0,92,0.00,,,0.00,Wunderground v.1.15,2013-07-20 04:05:00,
2013-07-19 23:10:00,72.0,69.5,29.90,NNE,16,0.0,0.0,92,0.00,,,0.00,Wunderground v.1.15,2013-07-20 04:10:00,
2013-07-19 23:15:00,71.8,69.3,29.90,NNE,16,0.0,0.0,92,0.00,,,0.00,Wunderground v.1.15,2013-07-20 04:15:00,
2013-07-19 23:20:00,71.8,69.3,29.90,NNE,16,0.0,0.0,92,0.00,,,0.00,Wunderground v.1.15,2013-07-20 04:20:00,
2013-07-19 23:25:00,71.6,69.2,29.90,NNE,16,0.0,0.0,92,0.00,,,0.00,Wunderground v.1.15,2013-07-20 04:25:00,
2013-07-19 23:30:00,71.5,69.4,29.90,NNE,16,0.0,0.0,93,0.00,,,0.00,Wunderground v.1.15,2013-07-20 04:30:00,
2013-07-19 23:35:00,71.3,69.2,29.90,NNE,16,0.0,0.0,93,0.00,,,0.00,Wunderground v.1.15,2013-07-20 04:35:00,
2013-07-19 23:40:00,71.1,69.0,29.90,NNE,16,0.0,0.0,93,0.00,,,0.00,Wunderground v.1.15,2013-07-20 04:40:00,
2013-07-19 23:45:00,71.1,69.0,29.90,NNE,16,0.0,0.0,93,0.00,,,0.00,Wunderground v.1.15,2013-07-20 04:45:00,
2013-07-19 23:50:00,70.9,68.8,29.90,NNE,16,0.0,0.0,93,0.00,,,0.00,Wunderground v.1.15,2013-07-20 04:50:00,
2013-07-19 23:55:00,70.9,68.8,29.90,NNE,16,0.0,0.0,93,0.00,,,0.00,Wunderground v.1.15,2013-07-20 04:55:00,